Weather History for Moriarty, NM

Change the Weather History Date:

Tuesday, February 19, 2013

  Actual Average (KABQ) Record (KABQ)
Temperature  
Mean Temperature 31 °F 42 °F  
Max Temperature 57 °F 54 °F 72 °F (1981)
Min Temperature 5 °F 31 °F 12 °F (1910)
Degree Days  
Heating Degree Days 34 23  
Month to date heating degree days 469  
Since 1 July heating degree days 3111  
Cooling Degree Days 0 0  
Month to date cooling degree days 0  
Year to date cooling degree days 0  
Moisture  
Dew Point 4 °F    
Average Humidity 34    
Maximum Humidity 85    
Minimum Humidity 12    
Precipitation  
Precipitation 0.00 in 0.02 in 0.36 in (1915)
Month to date precipitation 0.32  
Year to date precipitation 0.70  
Snow  
Snow 0.00 in - - ()
Month to date snowfall  
Since 1 July snowfall  
Snow Depth -    
Sea Level Pressure  
Sea Level Pressure 29.96 in    
Wind  
Wind Speed 8 mph (SSE)    
Max Wind Speed 23 mph    
Max Gust Speed 34 mph    
Visibility 10 miles    
Events      
T = Trace of Precipitation, MM = Missing Value Source: NWS Daily Summary

Daily Weather History Graph

Daily Weather History Graph

Search for Another Location

Airport:

Trip Planner

Search our weather history database for the weather conditions in past years. The results will help you decide how hot, cold, wet, or windy it might be!

Date:

Astronomy

Feb. 19, 2013 Rise Set
Actual Time 6:45 AM MST 5:50 PM MST
Civil Twilight 6:19 AM MST 6:16 PM MST
Nautical Twilight 5:49 AM MST 6:46 PM MST
Astronomical Twilight 5:20 AM MST 7:15 PM MST
Moon 12:31 PM MST (2/19) 2:12 AM MST (2/19)
Length of Visible Light 11h 57m
Length of Day
11h 05m
Waxing Gibbous, 68% of the Moon is Illuminated
Feb 19
Waxing Gibbous
Feb 25
Full
Mar 4
Last Quarter
Mar 11
New
Mar 19
First Quarter

Hourly Weather History & Observations

Time (MST) Temp. Windchill Dew Point Humidity Pressure Visibility Wind Dir Wind Speed Gust Speed Precip Events Conditions
12:15 AM 17.8 °F 10.9 °F -16.6 °F 21% 30.11 in 10.0 mi SSE 4.6 mph - N/A   Clear
12:35 AM 16.2 °F - -15.9 °F 23% 30.11 in 10.0 mi Calm Calm - N/A   Clear
12:55 AM 14.2 °F 8.4 °F -16.4 °F 25% 30.11 in 10.0 mi NNW 3.5 mph - N/A   Clear
1:15 AM 14.5 °F 8.8 °F -17.3 °F 23% 30.11 in 10.0 mi NNW 3.5 mph - N/A   Clear
1:35 AM 13.1 °F 7.1 °F -17.7 °F 24% 30.11 in 10.0 mi North 3.5 mph - N/A   Clear
1:55 AM 14.0 °F 3.9 °F -16.4 °F 25% 30.10 in 10.0 mi NE 6.9 mph - N/A   Clear
2:15 AM 11.3 °F 3.3 °F -16.6 °F 28% 30.10 in 10.0 mi NNE 4.6 mph - N/A   Clear
2:35 AM 10.6 °F 1.0 °F -15.2 °F 31% 30.09 in 10.0 mi North 5.8 mph - N/A   Clear
2:55 AM 10.9 °F 0.2 °F -15.5 °F 30% 30.08 in 10.0 mi North 6.9 mph - N/A   Clear
3:15 AM 11.1 °F 3.1 °F -16.2 °F 28% 30.09 in 10.0 mi NW 4.6 mph - N/A   Clear
3:35 AM 12.2 °F - -15.5 °F 28% 30.09 in 10.0 mi Calm Calm - N/A   Clear
3:55 AM 11.3 °F 5.1 °F -15.0 °F 30% 30.09 in 10.0 mi SW 3.5 mph - N/A   Clear
4:15 AM 10.4 °F - -15.3 °F 31% 30.08 in 10.0 mi Calm Calm - N/A   Clear
4:55 AM 6.8 °F - -15.9 °F 35% 30.08 in 10.0 mi Calm Calm - N/A   Clear
5:35 AM 5.7 °F - -15.3 °F 37% 30.08 in 10.0 mi Calm Calm - N/A   Clear
5:55 AM 5.2 °F -3.8 °F -17.0 °F 35% 30.08 in 10.0 mi North 4.6 mph - N/A   Clear
6:15 AM 6.8 °F -2.0 °F -14.3 °F 38% 30.08 in 10.0 mi NNE 4.6 mph - N/A   Clear
6:35 AM 7.0 °F 0.1 °F -14.8 °F 36% 30.08 in 10.0 mi North 3.5 mph - N/A   Clear
6:55 AM 5.7 °F -4.8 °F -14.1 °F 40% 30.08 in 10.0 mi North 5.8 mph - N/A   Clear
7:15 AM 7.3 °F 0.5 °F -13.7 °F 38% 30.08 in 10.0 mi North 3.5 mph - N/A   Clear
7:35 AM 11.7 °F - -12.8 °F 33% 30.08 in 10.0 mi Calm Calm - N/A   Clear
7:55 AM 16.7 °F - -10.7 °F 29% 30.08 in 10.0 mi Calm Calm - N/A   Clear
8:35 AM 25.7 °F 21.5 °F -8.7 °F 22% 30.09 in 10.0 mi NW 3.5 mph - N/A   Clear
8:55 AM 30.6 °F - -2.4 °F 24% 30.08 in 10.0 mi Calm Calm - N/A   Clear
9:15 AM 32.0 °F 28.7 °F 2.3 °F 28% 30.08 in 10.0 mi South 3.5 mph - N/A   Clear
9:35 AM 35.1 °F 31.0 °F 3.7 °F 27% 30.07 in 10.0 mi SSE 4.6 mph - N/A   Clear
9:55 AM 37.9 °F 32.1 °F 5.7 °F 26% 30.06 in 10.0 mi South 8.1 mph - N/A   Clear
10:15 AM 40.8 °F 36.2 °F 5.9 °F 24% 30.05 in 10.0 mi South 6.9 mph - N/A   Clear
10:35 AM 40.3 °F 35.5 °F 6.6 °F 25% 30.04 in 10.0 mi SSE 6.9 mph - N/A   Clear
10:55 AM 44.6 °F 40.2 °F 6.6 °F 21% 30.03 in 10.0 mi SSE 8.1 mph - N/A   Clear
11:15 AM 46.8 °F - 5.5 °F 19% 30.02 in 10.0 mi SSE 10.4 mph - N/A   Clear
11:35 AM 47.8 °F - 4.5 °F 17% 30.00 in 10.0 mi SSE 13.8 mph - N/A   Clear
11:55 AM 49.8 °F - 4.6 °F 16% 29.98 in 10.0 mi SSE 12.7 mph - N/A   Clear
12:15 PM 52.2 °F - 5.2 °F 15% 29.96 in 10.0 mi SSE 15.0 mph 18.4 mph N/A   Clear
12:35 PM 53.8 °F - 7.7 °F 16% 29.94 in 10.0 mi SE 12.7 mph 17.3 mph N/A   Clear
12:55 PM 55.0 °F - 8.6 °F 16% 29.92 in 10.0 mi SE 13.8 mph 18.4 mph N/A   Clear
1:15 PM 54.0 °F - 7.9 °F 16% 29.90 in 10.0 mi SE 16.1 mph 21.9 mph N/A   Clear
1:35 PM 54.0 °F - 9.0 °F 17% 29.87 in 10.0 mi ESE 11.5 mph 18.4 mph N/A   Clear
1:55 PM 55.9 °F - 3.7 °F 12% 29.86 in 10.0 mi South 18.4 mph 28.8 mph N/A   Scattered Clouds
2:15 PM 56.3 °F - 3.0 °F 12% 29.86 in 10.0 mi South 19.6 mph - N/A   Clear
2:35 PM 55.9 °F - 4.8 °F 13% 29.85 in 10.0 mi SSW 20.7 mph 27.6 mph N/A   Clear
2:55 PM 55.6 °F - 5.2 °F 13% 29.85 in 10.0 mi South 23.0 mph 27.6 mph N/A   Clear
3:15 PM 56.3 °F - 6.3 °F 13% 29.84 in 10.0 mi South 23.0 mph - N/A   Clear
3:35 PM 57.0 °F - 7.5 °F 14% 29.84 in 10.0 mi SSW 23.0 mph 34.5 mph N/A   Clear
3:55 PM 56.5 °F - 6.6 °F 14% 29.83 in 10.0 mi SSW 19.6 mph 29.9 mph N/A   Clear
4:15 PM 55.9 °F - 9.0 °F 15% 29.83 in 10.0 mi South 23.0 mph 32.2 mph N/A   Clear
5:35 PM 49.3 °F - 15.1 °F 26% 29.82 in 10.0 mi South 18.4 mph 24.2 mph N/A   Clear
5:55 PM 47.3 °F - 18.5 °F 32% 29.83 in 7.0 mi SSE 19.6 mph 25.3 mph N/A   Clear
6:15 PM 44.8 °F 38.0 °F 18.0 °F 34% 29.84 in 10.0 mi SE 15.0 mph 23.0 mph N/A   Scattered Clouds
6:35 PM 42.3 °F 33.8 °F 17.2 °F 37% 29.84 in 10.0 mi SE 18.4 mph - N/A   Mostly Cloudy
6:55 PM 43.0 °F 35.1 °F 19.8 °F 40% 29.84 in 10.0 mi SE 17.3 mph - N/A   Overcast
7:15 PM 44.1 °F 35.9 °F 22.6 °F 43% 29.84 in 10.0 mi SSE 19.6 mph 24.2 mph N/A   Overcast
7:35 PM 43.9 °F 35.2 °F 23.9 °F 45% 29.83 in 10.0 mi SSE 21.9 mph - N/A   Overcast
7:55 PM 43.2 °F 35.0 °F 26.4 °F 52% 29.83 in 10.0 mi SSE 18.4 mph - N/A   Scattered Clouds
8:15 PM 42.1 °F 34.5 °F 27.7 °F 57% 29.83 in 10.0 mi SSE 15.0 mph - N/A   Clear
8:55 PM 41.4 °F 33.0 °F 32.0 °F 69% 29.83 in 10.0 mi SE 17.3 mph - N/A   Overcast
9:15 PM 41.0 °F 33.1 °F 34.0 °F 76% 29.83 in 10.0 mi SSE 15.0 mph - N/A   Overcast
9:35 PM 39.4 °F 32.7 °F 33.8 °F 80% 29.83 in 10.0 mi SE 10.4 mph - N/A   Mostly Cloudy
9:55 PM 37.8 °F 31.8 °F 33.1 °F 83% 29.83 in 10.0 mi SE 8.1 mph - N/A   Mostly Cloudy
10:15 PM 38.3 °F 33.2 °F 33.4 °F 83% 29.83 in 10.0 mi SSE 6.9 mph - N/A   Mostly Cloudy
10:35 PM 36.9 °F 32.2 °F 32.5 °F 84% 29.82 in 10.0 mi SE 5.8 mph - N/A   Scattered Clouds
11:15 PM 37.6 °F 30.5 °F 33.3 °F 84% 29.81 in 10.0 mi SSE 10.4 mph - N/A   Scattered Clouds
11:35 PM 36.3 °F 29.5 °F 32.2 °F 85% 29.81 in 10.0 mi SSE 9.2 mph - N/A   Clear
11:55 PM 39.0 °F 30.6 °F 33.1 °F 79% 29.80 in 10.0 mi South 15.0 mph 28.8 mph N/A   Scattered Clouds